Brown Field Municipal Airport San Diego US
ICAO: KSDM
IATA: SDM
Category: Medium
Scheduled Services: No

Elevation: 526 ft
TransAlt. 18000 ft.

Airport Communications:
SOCAL APP:124.35
ATIS:132.35
CLNC DEL:124.4
CTAF:126.5
SOCAL DEP:125.15
GND:124.4
TWR:126.5
UNICOM:122.95

KSDM Zoom In..

If you have problems with the map follow the link
https://www.worldairports.se/pages/airport.php?
ICAO=KSDM

Runways:

(A) RW 08L length 7972 ft width 150 ft
---- / hdg 82

(B) RW 08R length 3180 ft width 150 ft
---- / hdg 82

(C) RW 26L length 3180 ft width 150 ft
---- / hdg 262

(D) RW 26R length 7972 ft width 150 ft
---- / hdg 262

Location; KSDM
Day. 22 / Time. 12.53 Zulu
* Altimeter: 30.16
* Temperature: 11° c. 51.8°f.
* Wind from: 000° Speed 00 kn.
Dewpoint: 09° c.
Visibility: 10 Statute Miles.
Clouds: Broken 3400 ft.

KSDM 221253Z AUTO 00000KT 10SM BKN034 11/09 A3016 RMK AO2 SLP213 T01110089


Wind - Calm.

 
 
jpsmedia worldairports.se 2020   terms of use